| time (UTC) | temp F | wind direction | speed MPH | gust MPH | rain 1hr in | rain 24hr in | rain mn in | humidity % | barometer mb |
| 20260901214046 | 73 | 231 | 9.0 | 14.0 | 0.00 | 0.00 | 0.00 | 53 | 1016.0 |
| 20260901213546 | 73 | 326 | 4.0 | 11.0 | 0.00 | 0.00 | 0.00 | 53 | 1016.2 |
| 20260901213102 | 73 | 256 | 5.0 | 11.0 | 0.00 | 0.00 | 0.00 | 53 | 1016.2 |
| 20260901212545 | 73 | 258 | 5.0 | 12.0 | 0.00 | 0.00 | 0.00 | 53 | 1016.1 |
| 20260901212045 | 74 | 222 | 4.0 | 12.0 | 0.00 | 0.00 | 0.00 | 51 | 1016.1 |
| 20260901211603 | 74 | 233 | 3.0 | 11.0 | 0.00 | 0.00 | 0.00 | 51 | 1016.1 |
| 20260901211044 | 72 | 232 | 6.0 | 12.0 | 0.00 | 0.00 | 0.00 | 54 | 1016.1 |
| 20260901210547 | 72 | 243 | 4.0 | 12.0 | 0.00 | 0.00 | 0.00 | 52 | 1016.0 |
| 20260901205545 | 73 | 205 | 4.0 | 12.0 | 0.00 | 0.00 | 0.00 | 50 | 1016.1 |
| 20260901205047 | 73 | 106 | 6.0 | 12.0 | 0.00 | 0.00 | 0.00 | 49 | 1016.0 |
| 20260901204602 | 73 | 139 | 3.0 | 10.0 | 0.00 | 0.00 | 0.00 | 49 | 1016.0 |
| 20260901204045 | 73 | 262 | 5.0 | 14.0 | 0.00 | 0.00 | 0.00 | 48 | 1016.1 |
| 20260901203548 | 73 | 158 | 5.0 | 14.0 | 0.00 | 0.00 | 0.00 | 49 | 1016.0 |
| 20260901203058 | 73 | 177 | 6.0 | 12.0 | 0.00 | 0.00 | 0.00 | 49 | 1016.1 |
| 20260901202545 | 73 | 146 | 4.0 | 12.0 | 0.00 | 0.00 | 0.00 | 51 | 1016.2 |
| 20260901202045 | 72 | 267 | 5.0 | 12.0 | 0.00 | 0.00 | 0.00 | 50 | 1016.2 |
| 20260901201603 | 72 | 302 | 3.0 | 11.0 | 0.00 | 0.00 | 0.00 | 50 | 1016.3 |
| 20260901201046 | 72 | 253 | 3.0 | 12.0 | 0.00 | 0.00 | 0.00 | 51 | 1016.3 |
| 20260901200545 | 72 | 229 | 5.0 | 12.0 | 0.00 | 0.00 | 0.00 | 50 | 1016.3 |
| 20260901200104 | 72 | 229 | 4.0 | 12.0 | 0.00 | 0.00 | 0.00 | 50 | 1016.4 |
| 20260901195545 | 71 | 244 | 4.0 | 10.0 | 0.00 | 0.00 | 0.00 | 51 | 1016.5 |
| 20260901195045 | 71 | 252 | 6.0 | 9.0 | 0.00 | 0.00 | 0.00 | 50 | 1016.5 |
| 20260901194604 | 72 | 229 | 3.0 | 9.0 | 0.00 | 0.00 | 0.00 | 48 | 1016.5 |
| 20260901194047 | 72 | 160 | 5.0 | 11.0 | 0.00 | 0.00 | 0.00 | 50 | 1016.5 |
| 20260901193547 | 71 | 199 | 3.0 | 11.0 | 0.00 | 0.00 | 0.00 | 54 | 1016.5 |
| 20260901193100 | 70 | 212 | 4.0 | 10.0 | 0.00 | 0.00 | 0.00 | 53 | 1016.6 |
| 20260901192547 | 70 | 221 | 4.0 | 9.0 | 0.00 | 0.00 | 0.00 | 54 | 1016.6 |
| 20260901192047 | 69 | 133 | 4.0 | 9.0 | 0.00 | 0.00 | 0.00 | 55 | 1016.7 |
| 20260901191550 | 69 | 222 | 3.0 | 8.0 | 0.00 | 0.00 | 0.00 | 55 | 1016.8 |
| 20260901191046 | 69 | 213 | 2.0 | 10.0 | 0.00 | 0.00 | 0.00 | 56 | 1016.7 |
| 20260901190545 | 68 | 222 | 5.0 | 10.0 | 0.00 | 0.00 | 0.00 | 56 | 1016.7 |
| 20260901185546 | 69 | 240 | 4.0 | 10.0 | 0.00 | 0.00 | 0.00 | 57 | 1016.8 |
| 20260901185045 | 68 | 124 | 4.0 | 9.0 | 0.00 | 0.00 | 0.00 | 59 | 1016.8 |
| 20260901184606 | 68 | 259 | 3.0 | 9.0 | 0.00 | 0.00 | 0.00 | 58 | 1016.9 |
| 20260901184045 | 68 | 266 | 5.0 | 9.0 | 0.00 | 0.00 | 0.00 | 58 | 1017.0 |
| 20260901183546 | 68 | 257 | 4.0 | 8.0 | 0.00 | 0.00 | 0.00 | 59 | 1017.0 |
| 20260901183114 | 67 | 122 | 4.0 | 8.0 | 0.00 | 0.00 | 0.00 | 60 | 1016.8 |
| 20260901182545 | 68 | 233 | 4.0 | 13.0 | 0.00 | 0.00 | 0.00 | 60 | 1016.8 |
| 20260901182048 | 68 | 264 | 3.0 | 13.0 | 0.00 | 0.00 | 0.00 | 61 | 1016.8 |
| 20260901181556 | 68 | 210 | 5.0 | 13.0 | 0.00 | 0.00 | 0.00 | 59 | 1016.7 |
| 20260901181046 | 69 | 236 | 3.0 | 7.0 | 0.00 | 0.00 | 0.00 | 59 | 1016.7 |
| 20260901180545 | 69 | 154 | 2.0 | 7.0 | 0.00 | 0.00 | 0.00 | 60 | 1016.7 |
| 20260901180051 | 68 | 137 | 3.0 | 12.0 | 0.00 | 0.00 | 0.00 | 61 | 1016.6 |
| 20260901175545 | 68 | 233 | 4.0 | 12.0 | 0.00 | 0.00 | 0.00 | 61 | 1016.4 |
| 20260901175045 | 68 | 218 | 5.0 | 12.0 | 0.00 | 0.00 | 0.00 | 61 | 1016.5 |
| 20260901174603 | 69 | 247 | 3.0 | 10.0 | 0.00 | 0.00 | 0.00 | 61 | 1016.4 |
| 20260901174045 | 69 | 260 | 5.0 | 10.0 | 0.00 | 0.00 | 0.00 | 60 | 1016.4 |
| 20260901173549 | 69 | 195 | 3.0 | 11.0 | 0.00 | 0.00 | 0.00 | 62 | 1016.4 |
| 20260901173139 | 68 | 233 | 4.0 | 11.0 | 0.00 | 0.00 | 0.00 | 62 | 1016.3 |
| 20260901172547 | 69 | 225 | 4.0 | 10.0 | 0.00 | 0.00 | 0.00 | 61 | 1016.4 |
| 20260901172046 | 68 | 205 | 3.0 | 9.0 | 0.00 | 0.00 | 0.00 | 62 | 1016.4 |
| 20260901171558 | 68 | 229 | 4.0 | 12.0 | 0.00 | 0.00 | 0.00 | 62 | 1016.4 |
| 20260901171046 | 68 | 155 | 5.0 | 12.0 | 0.00 | 0.00 | 0.00 | 63 | 1016.2 |
| 20260901170547 | 68 | 134 | 3.0 | 10.0 | 0.00 | 0.00 | 0.00 | 63 | 1016.1 |
| 20260901170104 | 67 | 218 | 4.0 | 10.0 | 0.00 | 0.00 | 0.00 | 63 | 1016.1 |
| 20260901165546 | 67 | 214 | 4.0 | 9.0 | 0.00 | 0.00 | 0.00 | 63 | 1016.2 |
| 20260901165043 | 67 | 130 | 4.0 | 9.0 | 0.00 | 0.00 | 0.00 | 65 | 1016.1 |
| 20260901164606 | 66 | 148 | 4.0 | 8.0 | 0.00 | 0.00 | 0.00 | 67 | 1016.0 |
| 20260901164046 | 66 | 160 | 2.0 | 10.0 | 0.00 | 0.00 | 0.00 | 68 | 1016.1 |
| 20260901163546 | 66 | 207 | 3.0 | 10.0 | 0.00 | 0.00 | 0.00 | 68 | 1016.1 |
| 20260901163116 | 65 | 155 | 4.0 | 10.0 | 0.00 | 0.00 | 0.00 | 69 | 1016.1 |
| 20260901162545 | 65 | 154 | 4.0 | 10.0 | 0.00 | 0.00 | 0.00 | 71 | 1016.1 |
| 20260901162046 | 64 | 150 | 5.0 | 12.0 | 0.00 | 0.00 | 0.00 | 71 | 1016.1 |
| 20260901161606 | 64 | 138 | 5.0 | 13.0 | 0.00 | 0.00 | 0.00 | 71 | 1016.1 |
| 20260901161044 | 64 | 153 | 5.0 | 13.0 | 0.00 | 0.00 | 0.00 | 71 | 1016.1 |
| 20260901160543 | 65 | 206 | 5.0 | 11.0 | 0.00 | 0.00 | 0.00 | 70 | 1016.0 |
| 20260901160104 | 65 | 158 | 5.0 | 11.0 | 0.00 | 0.00 | 0.00 | 70 | 1015.8 |
| 20260901155544 | 65 | 225 | 4.0 | 10.0 | 0.00 | 0.00 | 0.00 | 70 | 1015.8 |
| 20260901155044 | 65 | 160 | 3.0 | 10.0 | 0.00 | 0.00 | 0.00 | 73 | 1015.8 |
| 20260901154607 | 63 | 158 | 5.0 | 10.0 | 0.00 | 0.00 | 0.00 | 74 | 1015.8 |
| 20260901154051 | 63 | 149 | 4.0 | 9.0 | 0.00 | 0.00 | 0.00 | 75 | 1015.7 |
| 20260901153550 | 63 | 141 | 3.0 | 8.0 | 0.00 | 0.00 | 0.00 | 76 | 1015.6 |
| 20260901153102 | 63 | 174 | 3.0 | 8.0 | 0.00 | 0.00 | 0.00 | 76 | 1015.8 |
| 20260901152549 | 63 | 138 | 3.0 | 8.0 | 0.00 | 0.00 | 0.00 | 76 | 1015.7 |
| 20260901152046 | 63 | 118 | 3.0 | 8.0 | 0.00 | 0.00 | 0.00 | 77 | 1015.6 |
| 20260901151557 | 63 | 137 | 3.0 | 9.0 | 0.00 | 0.00 | 0.00 | 77 | 1015.5 |
| 20260901151049 | 63 | 254 | 4.0 | 9.0 | 0.00 | 0.00 | 0.00 | 77 | 1015.4 |
| 20260901150548 | 62 | 255 | 3.0 | 9.0 | 0.00 | 0.00 | 0.00 | 77 | 1015.3 |
| 20260901150103 | 62 | 252 | 2.0 | 7.0 | 0.00 | 0.00 | 0.00 | 77 | 1015.4 |
| 20260901145548 | 62 | 153 | 2.0 | 6.0 | 0.00 | 0.00 | 0.00 | 77 | 1015.3 |
| 20260901145052 | 62 | 142 | 2.0 | 6.0 | 0.00 | 0.00 | 0.00 | 77 | 1015.1 |
| 20260901144604 | 62 | 170 | 2.0 | 6.0 | 0.00 | 0.00 | 0.00 | 77 | 1015.2 |
| 20260901144051 | 63 | 90 | 3.0 | 7.0 | 0.00 | 0.00 | 0.00 | 76 | 1015.1 |
| 20260901143549 | 63 | 156 | 3.0 | 7.0 | 0.00 | 0.00 | 0.00 | 76 | 1015.0 |
| 20260901143106 | 63 | 143 | 3.0 | 7.0 | 0.00 | 0.00 | 0.00 | 76 | 1015.0 |
| 20260901142549 | 63 | 235 | 3.0 | 6.0 | 0.00 | 0.00 | 0.00 | 76 | 1015.0 |
| 20260901142048 | 62 | 155 | 3.0 | 6.0 | 0.00 | 0.00 | 0.00 | 77 | 1014.9 |
| 20260901141614 | 62 | 188 | 2.0 | 6.0 | 0.00 | 0.00 | 0.00 | 78 | 1014.7 |
| 20260901141049 | 61 | 155 | 2.0 | 7.0 | 0.00 | 0.00 | 0.00 | 79 | 1014.7 |
| 20260901140548 | 61 | 141 | 3.0 | 8.0 | 0.00 | 0.00 | 0.00 | 79 | 1014.6 |
| 20260901140103 | 61 | 113 | 3.0 | 8.0 | 0.00 | 0.00 | 0.00 | 79 | 1014.5 |
| 20260901135548 | 61 | 190 | 3.0 | 8.0 | 0.00 | 0.00 | 0.00 | 80 | 1014.5 |
| 20260901135045 | 61 | 127 | 2.0 | 8.0 | 0.00 | 0.00 | 0.00 | 80 | 1014.6 |
| 20260901134602 | 61 | 99 | 3.0 | 8.0 | 0.00 | 0.00 | 0.00 | 80 | 1014.4 |
| 20260901134049 | 60 | 117 | 2.0 | 8.0 | 0.00 | 0.00 | 0.00 | 80 | 1014.3 |
| 20260901133549 | 60 | 150 | 2.0 | 8.0 | 0.00 | 0.00 | 0.00 | 80 | 1014.4 |
| 20260901133055 | 60 | 158 | 3.0 | 6.0 | 0.00 | 0.00 | 0.00 | 80 | 1014.3 |
| 20260901132551 | 60 | 155 | 2.0 | 8.0 | 0.00 | 0.00 | 0.00 | 80 | 1014.3 |
| 20260901132049 | 60 | 142 | 3.0 | 8.0 | 0.00 | 0.00 | 0.00 | 81 | 1014.2 |
| 20260901131601 | 60 | 214 | 4.0 | 6.0 | 0.00 | 0.00 | 0.00 | 81 | 1014.1 |
| 20260901131050 | 60 | 141 | 2.0 | 6.0 | 0.00 | 0.00 | 0.00 | 81 | 1014.1 |
| 20260901130549 | 60 | 162 | 3.0 | 6.0 | 0.00 | 0.00 | 0.00 | 81 | 1014.1 |
| 20260901130107 | 60 | 179 | 2.0 | 4.0 | 0.00 | 0.00 | 0.00 | 82 | 1014.2 |
| 20260901125549 | 60 | 155 | 2.0 | 6.0 | 0.00 | 0.00 | 0.00 | 81 | 1014.2 |
| 20260901125049 | 60 | 179 | 3.0 | 6.0 | 0.00 | 0.00 | 0.00 | 81 | 1014.2 |
| 20260901124559 | 60 | 153 | 2.0 | 7.0 | 0.00 | 0.00 | 0.00 | 81 | 1014.1 |
| 20260901124045 | 60 | 183 | 0.0 | 8.0 | 0.00 | 0.00 | 0.00 | 81 | 1014.1 |
| 20260901123549 | 60 | 164 | 3.0 | 8.0 | 0.00 | 0.00 | 0.00 | 81 | 1014.1 |
| 20260901123106 | 60 | 243 | 2.0 | 7.0 | 0.00 | 0.00 | 0.00 | 81 | 1014.1 |
| 20260901122546 | 60 | 129 | 2.0 | 6.0 | 0.00 | 0.00 | 0.00 | 81 | 1014.0 |
| 20260901122045 | 60 | 153 | 2.0 | 6.0 | 0.00 | 0.00 | 0.00 | 81 | 1013.9 |
| 20260901121605 | 60 | 182 | 2.0 | 5.0 | 0.00 | 0.00 | 0.00 | 81 | 1013.8 |
| 20260901121045 | 60 | 142 | 2.0 | 5.0 | 0.00 | 0.00 | 0.00 | 81 | 1013.8 |
| 20260901120546 | 60 | 266 | 2.0 | 5.0 | 0.00 | 0.00 | 0.00 | 80 | 1013.7 |
| 20260901120109 | 60 | 150 | 1.0 | 4.0 | 0.00 | 0.00 | 0.00 | 80 | 1013.8 |
| 20260901115545 | 61 | 226 | 1.0 | 8.0 | 0.00 | 0.00 | 0.00 | 80 | 1013.8 |
| 20260901115047 | 60 | 155 | 2.0 | 8.0 | 0.00 | 0.00 | 0.00 | 80 | 1013.9 |
| 20260901114604 | 60 | 150 | 3.0 | 7.0 | 0.00 | 0.00 | 0.00 | 80 | 1014.0 |
| 20260901114049 | 60 | 170 | 2.0 | 9.0 | 0.00 | 0.00 | 0.00 | 80 | 1014.0 |
| 20260901113545 | 60 | 179 | 3.0 | 9.0 | 0.00 | 0.00 | 0.00 | 79 | 1013.9 |
| 20260901113057 | 61 | 115 | 3.0 | 8.0 | 0.00 | 0.00 | 0.00 | 79 | 1014.0 |
| 20260901112546 | 61 | 145 | 4.0 | 7.0 | 0.00 | 0.00 | 0.00 | 78 | 1014.0 |
| 20260901112045 | 61 | 169 | 3.0 | 6.0 | 0.00 | 0.00 | 0.00 | 78 | 1014.1 |
| 20260901111559 | 61 | 210 | 2.0 | 7.0 | 0.00 | 0.00 | 0.00 | 78 | 1014.1 |
| 20260901111045 | 61 | 233 | 2.0 | 7.0 | 0.00 | 0.00 | 0.00 | 77 | 1014.1 |
| 20260901110544 | 61 | 160 | 1.0 | 6.0 | 0.00 | 0.00 | 0.00 | 77 | 1014.1 |
| 20260901105546 | 61 | 158 | 2.0 | 8.0 | 0.00 | 0.00 | 0.00 | 77 | 1014.0 |
| 20260901105045 | 61 | 180 | 3.0 | 8.0 | 0.00 | 0.00 | 0.00 | 77 | 1014.0 |
| 20260901104551 | 61 | 191 | 2.0 | 8.0 | 0.00 | 0.00 | 0.00 | 77 | 1013.9 |
| 20260901104049 | 61 | 145 | 2.0 | 8.0 | 0.00 | 0.00 | 0.00 | 77 | 1013.9 |
| 20260901103546 | 61 | 160 | 3.0 | 8.0 | 0.00 | 0.00 | 0.00 | 78 | 1013.7 |
| 20260901103102 | 60 | 132 | 3.0 | 7.0 | 0.00 | 0.00 | 0.00 | 78 | 1013.7 |
| 20260901102546 | 60 | 138 | 2.0 | 7.0 | 0.00 | 0.00 | 0.00 | 78 | 1013.8 |
| 20260901102043 | 60 | 181 | 2.0 | 7.0 | 0.00 | 0.00 | 0.00 | 78 | 1013.7 |
| 20260901101606 | 60 | 162 | 2.0 | 5.0 | 0.00 | 0.00 | 0.00 | 78 | 1013.8 |
| 20260901101046 | 60 | 250 | 2.0 | 5.0 | 0.00 | 0.00 | 0.00 | 78 | 1013.7 |
| 20260901100546 | 60 | 205 | 2.0 | 7.0 | 0.00 | 0.00 | 0.00 | 78 | 1013.6 |
| 20260901100100 | 60 | 230 | 2.0 | 7.0 | 0.00 | 0.00 | 0.00 | 78 | 1013.7 |
| 20260901095545 | 60 | 150 | 3.0 | 7.0 | 0.00 | 0.00 | 0.00 | 78 | 1013.7 |
| 20260901095048 | 61 | 186 | 2.0 | 11.0 | 0.00 | 0.00 | 0.00 | 77 | 1013.7 |
| 20260901094602 | 61 | 194 | 4.0 | 11.0 | 0.00 | 0.00 | 0.00 | 77 | 1013.7 |
| 20260901094047 | 61 | 151 | 4.0 | 9.0 | 0.00 | 0.00 | 0.00 | 76 | 1013.7 |
| 20260901093545 | 61 | 146 | 2.0 | 7.0 | 0.00 | 0.00 | 0.00 | 76 | 1013.9 |
| 20260901093105 | 61 | 134 | 3.0 | 6.0 | 0.00 | 0.00 | 0.00 | 76 | 1013.9 |
| 20260901092545 | 61 | 148 | 2.0 | 5.0 | 0.00 | 0.00 | 0.00 | 75 | 1013.9 |
| 20260901092046 | 61 | 225 | 1.0 | 5.0 | 0.00 | 0.00 | 0.00 | 76 | 1013.9 |
| 20260901091608 | 61 | 126 | 2.0 | 5.0 | 0.00 | 0.00 | 0.00 | 76 | 1014.0 |
| 20260901091046 | 61 | 230 | 2.0 | 6.0 | 0.00 | 0.00 | 0.00 | 76 | 1014.0 |
| 20260901090548 | 61 | 233 | 1.0 | 8.0 | 0.00 | 0.00 | 0.00 | 75 | 1014.1 |
| 20260901090104 | 61 | 239 | 2.0 | 8.0 | 0.00 | 0.00 | 0.00 | 75 | 1014.1 |
| 20260901085545 | 61 | 140 | 3.0 | 6.0 | 0.00 | 0.00 | 0.00 | 75 | 1014.0 |
| 20260901085046 | 61 | 226 | 1.0 | 5.0 | 0.00 | 0.00 | 0.00 | 75 | 1014.0 |
| 20260901084623 | 61 | 168 | 3.0 | 7.0 | 0.00 | 0.00 | 0.00 | 75 | 1014.1 |
| 20260901084045 | 61 | 195 | 2.0 | 7.0 | 0.00 | 0.00 | 0.00 | 75 | 1014.0 |
| 20260901083547 | 61 | 193 | 1.0 | 5.0 | 0.00 | 0.00 | 0.00 | 75 | 1014.1 |
| 20260901083103 | 61 | 212 | 2.0 | 5.0 | 0.00 | 0.00 | 0.00 | 75 | 1014.0 |
| 20260901082544 | 61 | 231 | 2.0 | 5.0 | 0.00 | 0.00 | 0.00 | 75 | 1014.0 |
| 20260901082045 | 61 | 200 | 1.0 | 6.0 | 0.00 | 0.00 | 0.00 | 75 | 1014.0 |
| 20260901081605 | 61 | 227 | 1.0 | 6.0 | 0.00 | 0.00 | 0.00 | 75 | 1013.9 |
| 20260901081045 | 61 | 248 | 1.0 | 7.0 | 0.00 | 0.00 | 0.00 | 75 | 1013.9 |
| 20260901080546 | 61 | 241 | 1.0 | 7.0 | 0.00 | 0.00 | 0.00 | 75 | 1013.8 |
| 20260901080115 | 61 | 151 | 2.0 | 4.0 | 0.00 | 0.00 | 0.00 | 75 | 1013.8 |
| 20260901075546 | 61 | 159 | 1.0 | 6.0 | 0.00 | 0.00 | 0.00 | 75 | 1013.9 |
| 20260901075045 | 61 | 198 | 2.0 | 7.0 | 0.00 | 0.00 | 0.00 | 75 | 1013.8 |
| 20260901074628 | 60 | 132 | 3.0 | 7.0 | 0.00 | 0.00 | 0.00 | 75 | 1013.7 |
| 20260901074049 | 61 | 146 | 1.0 | 7.0 | 0.00 | 0.00 | 0.00 | 74 | 1013.7 |
| 20260901073545 | 61 | 162 | 3.0 | 7.0 | 0.00 | 0.00 | 0.00 | 74 | 1013.7 |
| 20260901073105 | 61 | 233 | 2.0 | 6.0 | 0.00 | 0.00 | 0.00 | 74 | 1013.7 |
| 20260901072545 | 61 | 146 | 3.0 | 7.0 | 0.00 | 0.00 | 0.00 | 74 | 1013.8 |
| 20260901072048 | 61 | 146 | 3.0 | 8.0 | 0.00 | 0.00 | 0.00 | 74 | 1013.7 |
| 20260901071554 | 61 | 185 | 3.0 | 8.0 | 0.00 | 0.00 | 0.00 | 74 | 1013.7 |
| 20260901071045 | 60 | 148 | 3.0 | 8.0 | 0.00 | 0.00 | 0.00 | 74 | 1013.7 |
| 20260901070548 | 60 | 129 | 3.0 | 8.0 | 0.00 | 0.00 | 0.00 | 75 | 1013.8 |
| 20260901070105 | 60 | 138 | 3.0 | 8.0 | 0.00 | 0.00 | 0.00 | 75 | 1013.8 |
| 20260901065545 | 60 | 131 | 4.0 | 8.0 | 0.00 | 0.00 | 0.00 | 76 | 1013.8 |
| 20260901065045 | 60 | 176 | 3.0 | 8.0 | 0.00 | 0.00 | 0.00 | 76 | 1013.8 |
| 20260901064600 | 60 | 181 | 2.0 | 5.0 | 0.00 | 0.00 | 0.00 | 76 | 1013.7 |
| 20260901064045 | 60 | 248 | 1.0 | 7.0 | 0.00 | 0.00 | 0.00 | 76 | 1013.9 |
| 20260901063545 | 60 | 217 | 3.0 | 7.0 | 0.00 | 0.00 | 0.00 | 76 | 1013.9 |
| 20260901063103 | 60 | 140 | 2.0 | 7.0 | 0.00 | 0.00 | 0.00 | 76 | 1013.9 |
| 20260901062545 | 60 | 214 | 2.0 | 8.0 | 0.00 | 0.00 | 0.00 | 76 | 1013.9 |
| 20260901062047 | 60 | 129 | 1.0 | 8.0 | 0.00 | 0.00 | 0.00 | 76 | 1013.9 |
| 20260901061553 | 60 | 154 | 3.0 | 10.0 | 0.00 | 0.00 | 0.00 | 76 | 1013.9 |
| 20260901061046 | 60 | 116 | 3.0 | 10.0 | 0.00 | 0.00 | 0.00 | 75 | 1014.0 |
| 20260901060546 | 60 | 159 | 3.0 | 7.0 | 0.00 | 0.00 | 0.00 | 76 | 1014.0 |
| 20260901060054 | 60 | 188 | 1.0 | 8.0 | 0.00 | 0.00 | 0.00 | 76 | 1014.0 |
| 20260901055545 | 60 | 211 | 3.0 | 11.0 | 0.00 | 0.00 | 0.00 | 75 | 1014.0 |
| 20260901055046 | 60 | 225 | 4.0 | 11.0 | 0.00 | 0.00 | 0.00 | 76 | 1014.0 |
| 20260901054602 | 60 | 271 | 2.0 | 10.0 | 0.00 | 0.00 | 0.00 | 76 | 1014.1 |
| 20260901054051 | 60 | 86 | 2.0 | 9.0 | 0.00 | 0.00 | 0.00 | 76 | 1013.9 |
| 20260901053546 | 60 | 238 | 1.0 | 7.0 | 0.00 | 0.00 | 0.00 | 76 | 1014.0 |
| 20260901053105 | 60 | 258 | 2.0 | 9.0 | 0.00 | 0.00 | 0.00 | 76 | 1013.9 |
| 20260901052545 | 60 | 240 | 2.0 | 9.0 | 0.00 | 0.00 | 0.00 | 76 | 1013.9 |
| 20260901052044 | 60 | 245 | 3.0 | 9.0 | 0.00 | 0.00 | 0.00 | 76 | 1013.9 |
| 20260901051610 | 60 | 238 | 2.0 | 7.0 | 0.00 | 0.00 | 0.00 | 76 | 1014.0 |
| 20260901051045 | 60 | 229 | 2.0 | 7.0 | 0.00 | 0.00 | 0.00 | 76 | 1013.9 |
| 20260901050549 | 60 | 257 | 2.0 | 7.0 | 0.00 | 0.00 | 0.00 | 76 | 1014.0 |
| 20260901050105 | 60 | 229 | 2.0 | 8.0 | 0.00 | 0.00 | 0.00 | 75 | 1013.8 |
| 20260901045546 | 60 | 160 | 3.0 | 8.0 | 0.00 | 0.00 | 0.00 | 75 | 1013.7 |
| 20260901045046 | 60 | 191 | 3.0 | 7.0 | 0.00 | 0.00 | 0.00 | 75 | 1013.7 |
| 20260901044606 | 60 | 227 | 2.0 | 9.0 | 0.00 | 0.00 | 0.00 | 75 | 1013.7 |
| 20260901044046 | 60 | 160 | 2.0 | 9.0 | 0.00 | 0.00 | 0.00 | 75 | 1013.6 |
| 20260901043546 | 60 | 166 | 2.0 | 9.0 | 0.00 | 0.00 | 0.00 | 75 | 1013.8 |
| 20260901043056 | 60 | 290 | 3.0 | 9.0 | 0.00 | 0.00 | 0.00 | 75 | 1013.8 |
| 20260901042546 | 60 | 259 | 3.0 | 10.0 | 0.00 | 0.00 | 0.00 | 74 | 1013.8 |
| 20260901042045 | 60 | 169 | 4.0 | 10.0 | 0.00 | 0.00 | 0.00 | 74 | 1013.7 |
| 20260901041621 | 60 | 234 | 3.0 | 10.0 | 0.00 | 0.00 | 0.00 | 74 | 1013.7 |
| 20260901041047 | 60 | 285 | 3.0 | 12.0 | 0.00 | 0.00 | 0.00 | 75 | 1013.7 |
| 20260901040547 | 61 | 155 | 4.0 | 12.0 | 0.00 | 0.00 | 0.00 | 75 | 1013.6 |
| 20260901040137 | 60 | 155 | 4.0 | 13.0 | 0.00 | 0.00 | 0.00 | 75 | 1013.5 |
| 20260901035547 | 60 | 124 | 5.0 | 13.0 | 0.00 | 0.00 | 0.00 | 74 | 1013.5 |
| 20260901035047 | 61 | 172 | 5.0 | 13.0 | 0.00 | 0.00 | 0.00 | 75 | 1013.5 |
| 20260901034558 | 60 | 120 | 5.0 | 13.0 | 0.00 | 0.00 | 0.00 | 75 | 1013.4 |
| 20260901034049 | 60 | 243 | 4.0 | 14.0 | 0.00 | 0.00 | 0.00 | 75 | 1013.4 |
| 20260901033551 | 61 | 127 | 4.0 | 14.0 | 0.00 | 0.00 | 0.00 | 74 | 1013.3 |
| 20260901033105 | 61 | 199 | 3.0 | 12.0 | 0.00 | 0.00 | 0.00 | 75 | 1013.3 |
| 20260901032547 | 61 | 99 | 5.0 | 14.0 | 0.00 | 0.00 | 0.00 | 75 | 1013.2 |
| 20260901032048 | 61 | 141 | 5.0 | 14.0 | 0.00 | 0.00 | 0.00 | 75 | 1013.3 |
| 20260901031558 | 61 | 219 | 4.0 | 12.0 | 0.00 | 0.00 | 0.00 | 75 | 1013.2 |
| 20260901031047 | 61 | 172 | 5.0 | 14.0 | 0.00 | 0.00 | 0.00 | 75 | 1013.2 |
| 20260901030546 | 61 | 274 | 5.0 | 15.0 | 0.00 | 0.00 | 0.00 | 74 | 1013.2 |
| 20260901030111 | 61 | 230 | 4.0 | 15.0 | 0.00 | 0.00 | 0.00 | 74 | 1013.1 |
| 20260901025547 | 61 | 260 | 4.0 | 14.0 | 0.00 | 0.00 | 0.00 | 74 | 1013.2 |
| 20260901025051 | 61 | 137 | 6.0 | 14.0 | 0.00 | 0.00 | 0.00 | 74 | 1013.1 |
| 20260901024600 | 61 | 252 | 5.0 | 14.0 | 0.00 | 0.00 | 0.00 | 74 | 1013.1 |
| 20260901024047 | 61 | 282 | 4.0 | 13.0 | 0.00 | 0.00 | 0.00 | 74 | 1013.1 |
| 20260901023547 | 61 | 147 | 4.0 | 13.0 | 0.00 | 0.00 | 0.00 | 74 | 1013.1 |
| 20260901023107 | 62 | 257 | 5.0 | 16.0 | 0.00 | 0.00 | 0.00 | 73 | 1013.1 |
| 20260901022547 | 62 | 153 | 4.0 | 16.0 | 0.00 | 0.00 | 0.00 | 73 | 1013.0 |
| 20260901022047 | 62 | 267 | 3.0 | 16.0 | 0.00 | 0.00 | 0.00 | 72 | 1012.9 |
| 20260901021607 | 62 | 141 | 3.0 | 15.0 | 0.00 | 0.00 | 0.00 | 72 | 1013.0 |
| 20260901021047 | 62 | 231 | 3.0 | 15.0 | 0.00 | 0.00 | 0.00 | 72 | 1013.0 |
| 20260901020545 | 63 | 215 | 4.0 | 15.0 | 0.00 | 0.00 | 0.00 | 71 | 1013.0 |
| 20260901020101 | 63 | 257 | 4.0 | 11.0 | 0.00 | 0.00 | 0.00 | 71 | 1013.0 |
| 20260901015545 | 63 | 132 | 4.0 | 11.0 | 0.00 | 0.00 | 0.00 | 71 | 1013.1 |
| 20260901015046 | 63 | 208 | 5.0 | 14.0 | 0.00 | 0.00 | 0.00 | 71 | 1013.1 |
| 20260901014558 | 63 | 293 | 5.0 | 14.0 | 0.00 | 0.00 | 0.00 | 71 | 1013.2 |
| 20260901014046 | 63 | 245 | 4.0 | 14.0 | 0.00 | 0.00 | 0.00 | 71 | 1013.1 |
| 20260901013546 | 64 | 222 | 5.0 | 12.0 | 0.00 | 0.00 | 0.00 | 70 | 1013.3 |
| 20260901013057 | 64 | 236 | 5.0 | 12.0 | 0.00 | 0.00 | 0.00 | 70 | 1013.3 |
| 20260901012547 | 65 | 256 | 4.0 | 12.0 | 0.00 | 0.00 | 0.00 | 69 | 1013.2 |
| 20260901012045 | 65 | 176 | 6.0 | 13.0 | 0.00 | 0.00 | 0.00 | 69 | 1013.2 |
| 20260901011604 | 65 | 243 | 4.0 | 13.0 | 0.00 | 0.00 | 0.00 | 69 | 1013.1 |
| 20260901011046 | 66 | 182 | 4.0 | 12.0 | 0.00 | 0.00 | 0.00 | 68 | 1013.1 |
| 20260901010546 | 66 | 233 | 5.0 | 12.0 | 0.00 | 0.00 | 0.00 | 68 | 1013.1 |
| 20260901010114 | 65 | 243 | 5.0 | 12.0 | 0.00 | 0.00 | 0.00 | 69 | 1013.2 |
| 20260901005545 | 65 | 171 | 5.0 | 13.0 | 0.00 | 0.00 | 0.00 | 69 | 1013.2 |
| 20260901005045 | 66 | 114 | 7.0 | 13.0 | 0.00 | 0.00 | 0.00 | 69 | 1013.1 |
| 20260901004556 | 66 | 238 | 7.0 | 17.0 | 0.00 | 0.00 | 0.00 | 67 | 1013.2 |
| 20260901004045 | 67 | 247 | 5.0 | 17.0 | 0.00 | 0.00 | 0.00 | 67 | 1013.1 |
| 20260901003547 | 68 | 230 | 4.0 | 12.0 | 0.00 | 0.00 | 0.00 | 65 | 1013.0 |
| 20260901003106 | 67 | 203 | 4.0 | 15.0 | 0.00 | 0.00 | 0.00 | 66 | 1013.1 |
| 20260901002548 | 67 | 221 | 6.0 | 15.0 | 0.00 | 0.00 | 0.00 | 66 | 1013.0 |
| 20260901002049 | 68 | 255 | 4.0 | 13.0 | 0.00 | 0.00 | 0.00 | 64 | 1013.1 |
| 20260901001603 | 68 | 150 | 6.0 | 13.0 | 0.00 | 0.00 | 0.00 | 66 | 1013.1 |
| 20260901001049 | 68 | 185 | 4.0 | 13.0 | 0.00 | 0.00 | 0.00 | 65 | 1013.1 |
| 20260901000544 | 68 | 210 | 5.0 | 14.0 | 0.00 | 0.00 | 0.00 | 66 | 1013.2 |
| 20260901000107 | 68 | 229 | 3.0 | 14.0 | 0.00 | 0.00 | 0.00 | 65 | 1013.1 |
| 20260831235545 | 68 | 249 | 5.0 | 11.0 | 0.00 | 0.00 | 0.00 | 65 | 1013.2 |
| 20260831235045 | 68 | 198 | 4.0 | 15.0 | 0.00 | 0.00 | 0.00 | 66 | 1013.3 |
| 20260831234558 | 67 | 193 | 7.0 | 15.0 | 0.00 | 0.00 | 0.00 | 66 | 1013.2 |
| 20260831234048 | 67 | 271 | 7.0 | 16.0 | 0.00 | 0.00 | 0.00 | 66 | 1013.2 |
| 20260831233548 | 68 | 108 | 5.0 | 16.0 | 0.00 | 0.00 | 0.00 | 66 | 1013.3 |
| 20260831233053 | 68 | 245 | 7.0 | 13.0 | 0.00 | 0.00 | 0.00 | 65 | 1013.3 |
| 20260831232545 | 68 | 250 | 5.0 | 14.0 | 0.00 | 0.00 | 0.00 | 66 | 1013.2 |
| 20260831232045 | 67 | 240 | 5.0 | 14.0 | 0.00 | 0.00 | 0.00 | 67 | 1013.4 |
| 20260831231551 | 67 | 171 | 7.0 | 14.0 | 0.00 | 0.00 | 0.00 | 66 | 1013.3 |
| 20260831231047 | 68 | 178 | 6.0 | 18.0 | 0.00 | 0.00 | 0.00 | 66 | 1013.3 |
| 20260831230545 | 68 | 243 | 8.0 | 18.0 | 0.00 | 0.00 | 0.00 | 66 | 1013.3 |
| 20260831230112 | 68 | 245 | 8.0 | 17.0 | 0.00 | 0.00 | 0.00 | 66 | 1013.3 |
| 20260831225545 | 69 | 281 | 8.0 | 17.0 | 0.00 | 0.00 | 0.00 | 64 | 1013.3 |
| 20260831225047 | 69 | 116 | 4.0 | 13.0 | 0.00 | 0.00 | 0.00 | 64 | 1013.3 |
| 20260831224556 | 69 | 220 | 5.0 | 13.0 | 0.00 | 0.00 | 0.00 | 65 | 1013.5 |
| 20260831224047 | 69 | 255 | 6.0 | 15.0 | 0.00 | 0.00 | 0.00 | 64 | 1013.5 |
| 20260831223548 | 69 | 127 | 5.0 | 15.0 | 0.00 | 0.00 | 0.00 | 64 | 1013.4 |
| 20260831223110 | 69 | 145 | 5.0 | 15.0 | 0.00 | 0.00 | 0.00 | 65 | 1013.4 |
| 20260831222549 | 69 | 219 | 5.0 | 15.0 | 0.00 | 0.00 | 0.00 | 65 | 1013.6 |
| 20260831222045 | 69 | 224 | 6.0 | 18.0 | 0.00 | 0.00 | 0.00 | 65 | 1013.6 |
| 20260831221556 | 69 | 136 | 7.0 | 18.0 | 0.00 | 0.00 | 0.00 | 64 | 1013.6 |
| 20260831221045 | 69 | 124 | 7.0 | 17.0 | 0.00 | 0.00 | 0.00 | 65 | 1013.6 |
| 20260831220545 | 69 | 122 | 8.0 | 17.0 | 0.00 | 0.00 | 0.00 | 64 | 1013.8 |
| 20260831220100 | 68 | 165 | 6.0 | 17.0 | 0.00 | 0.00 | 0.00 | 66 | 1013.6 |
| 20260831215546 | 68 | 275 | 5.0 | 14.0 | 0.00 | 0.00 | 0.00 | 66 | 1013.7 |
| 20260831215046 | 68 | 239 | 6.0 | 15.0 | 0.00 | 0.00 | 0.00 | 65 | 1013.9 |
| 20260831214606 | 69 | 217 | 5.0 | 15.0 | 0.00 | 0.00 | 0.00 | 66 | 1013.9 |